Home   Weather   Oslo   Past weeks

Flag for Norway Past Weather in Oslo, Norway — Yesterday and Last 2 Weeks

Now
34 °F

Rain. Overcast.


Feels Like: 34 °F
Forecast: 32 / 40 °F
Wind: 2 mph from South

Location: Oslo-Blindern

Current Time: Apr 24, 2017 at 5:47:42 am

Latest Report: Apr 24, 2017 at 5:00 am


Visibility: 2 mi

Pressure: 29.59 "Hg

Humidity: 91%

Dew Point: 32 °F

Location of OsloLocation

Past Weather in Oslo — Graph

°F

Oslo Temperature Yesterday

Maximum temperature yesterday: 48 °F (at 12:00 pm)
Minimum temperature yesterday: 31 °F (at 5:00 am)
Average temperature yesterday: 41 °F

High & Low Weather Summary for the Past Weeks

 TemperatureHumidityPressure
High58 °F (Apr 9, 3:00 pm)99% (Apr 10, 2:00 am)30.55 "Hg (Apr 10, 2:00 am)
Low24 °F (Apr 15, 6:00 am)20% (Apr 22, 3:00 pm)29.38 "Hg (Apr 12, 3:00 pm)
Average40 °F62%29.87 "Hg
* Reported Apr 9 4:00 am — Apr 24 4:00 am, Oslo, Weather by CustomWeather, © 2017

Note: Actual official high and low records may vary slightly from our data, if they occured in-between our weather recording intervals... More about our weather records

Advertising

Oslo Weather History for the Previous 24 Hours

Scroll right to see more
 ConditionsComfort  
Time TempWeatherWind HumidityBarometerVisibility
4:00 am
Mon, Apr 24
38 °FFog.5 mph71%29.65 "Hg16 mi
3:00 am37 °FChilly.1 mph58%29.68 "Hg31 mi
2:00 am37 °FChilly.1 mph56%29.72 "Hg31 mi
1:00 am38 °FChilly.1 mph50%29.75 "Hg31 mi
12:00 am39 °FChilly.No wind46%29.78 "Hg31 mi
11:00 pm
Sun, Apr 23
40 °FChilly.1 mph43%29.79 "Hg31 mi
10:00 pm42 °FQuite cool.5 mph37%29.80 "Hg31 mi
9:00 pm42 °FQuite cool.3 mph31%29.80 "Hg31 mi
8:00 pm45 °FScattered clouds.1 mph26%29.80 "Hg47 mi
7:00 pm47 °FCool.2 mph24%29.80 "Hg25 mi
6:00 pm46 °FCool.5 mph25%29.81 "Hg31 mi
5:00 pm46 °FPartly sunny.3 mph25%29.81 "Hg47 mi
4:00 pm47 °FRain showers. Cloudy.6 mph25%29.81 "Hg28 mi
3:00 pm46 °FCool.3 mph29%29.83 "Hg22 mi
2:00 pm47 °FPartly sunny.3 mph24%29.83 "Hg47 mi
1:00 pm46 °FCool.3 mph27%29.84 "Hg31 mi
12:00 pm48 °FCool.3 mph26%29.84 "Hg25 mi
11:00 am45 °FPassing clouds.7 mph28%29.86 "Hg47 mi
10:00 am43 °FQuite cool.7 mph29%29.86 "Hg25 mi
9:00 am42 °FQuite cool.3 mph36%29.87 "Hg28 mi
8:00 am35 °FChilly.2 mph54%29.86 "Hg31 mi
7:00 am33 °FChilly.2 mph62%29.86 "Hg31 mi
6:00 am32 °FChilly.2 mph69%29.86 "Hg31 mi
5:00 am31 °FChilly.No wind74%29.86 "Hg31 mi
Weather by CustomWeather, © 2017

See weather overviewHow to use our weather pages